This is the latest recevied weather packets stored in our database for station/object 9D9-WX. If no packets are shown the sender has not sent any weather packets the latest 10 day(s).
| Time | Temp. | Humidity | Pressure | Rain* | Wind** | Luminosity | Snow |
|---|---|---|---|---|---|---|---|
| 1777620626 | 3.89° C | 84% | 985.5 hPa | 0 mm | - | - | - |
| 1777619709 | 3.89° C | 84% | 985.5 hPa | 0 mm | - | - | - |
| 1777618831 | 4.44° C | 84% | 985.5 hPa | 0 mm | - | - | - |
| 1777617909 | 4.44° C | 81% | 986 hPa | 0 mm | - | - | - |
| 1777617027 | 4.44° C | 86% | 985.2 hPa | 0 mm | - | - | - |
| 1777616109 | 5° C | 86% | 985.2 hPa | 0 mm | - | - | - |
| 1777615232 | 4.44° C | 86% | 985.2 hPa | 0 mm | - | - | - |
| 1777614309 | 5° C | 84% | 986.7 hPa | 0 mm | - | - | - |
| 1777613426 | 5° C | 81% | 986 hPa | 0 mm | - | - | - |
| 1777612511 | 5° C | 81% | 986 hPa | 0 mm | - | - | - |
| 1777611632 | 5° C | 81% | 986 hPa | 0 mm | - | - | - |
| 1777610709 | 5° C | 79% | 987.2 hPa | 0 mm | - | - | - |
| 1777609827 | 5.56° C | 79% | 986.3 hPa | 0 mm | - | - | - |
| 1777608910 | 5.56° C | 79% | 986.3 hPa | 0 mm | - | - | - |
| 1777608033 | 5.56° C | 79% | 986.3 hPa | 0 mm | - | - | - |
| 1777607110 | 5.56° C | 75% | 986.3 hPa | 0 mm | - | - | - |
| 1777606223 | 5.56° C | 73% | 985.8 hPa | 0 mm | - | - | - |
| 1777605310 | 5.56° C | 73% | 985.8 hPa | 0 mm | - | - | - |
| 1777604426 | 5.56° C | 73% | 985.8 hPa | 0 mm | - | - | - |
| 1777603510 | 5.56° C | 71% | 986 hPa | 0 mm | - | - | - |
| 1777602621 | 6.11° C | 73% | 986.3 hPa | 0 mm | - | - | - |
| 1777601710 | 6.11° C | 73% | 986.4 hPa | 0 mm | - | - | - |
| 1777600825 | 6.11° C | 73% | 986.4 hPa | 0 mm | - | - | - |
| 1777599910 | 6.11° C | 66% | 986.7 hPa | 0 mm | - | - | - |
| 1777599021 | 6.11° C | 66% | 986.7 hPa | 0 mm | - | - | - |
* Rain latest hour (hover to see other rain measurements)
** Current wind speed in m/s (hover to see current wind gust speed)